QPF
0.00 0.02 0.02 0.01 0.00 0.00 0.00 0.00 0.01 0.03 0.03 0.04 0.05 0.01 0.00 0.00 0.00 0.01 0.01 0.02 0.04 0.03 0.02 0.02 0.01 0.01 0.01 0.02 0.03 0.04 0.04 0.05 0.08 0.09 0.09 0.08 0.06 0.05 0.06 0.06 0.06 0.07 0.08 0.08
0.00 0.01 0.03 0.01 0.00 0.00 0.00 0.00 0.00 0.01 0.03 0.04 0.04 0.01 0.00 0.00 0.00 0.00 0.01 0.02 0.02 0.01 0.01 0.01 0.01 0.01 0.01 0.01 0.03 0.04 0.03 0.06 0.07 0.07 0.08 0.07 0.06 0.05 0.06 0.06 0.07 0.07 0.06 0.06
0.00 0.00 0.02 0.02 0.01 0.00 0.00 0.00 0.01 0.01 0.04 0.06 0.04 0.04 0.01 0.00 0.00 0.00 0.01 0.01 0.02 0.02 0.01 0.01 0.01 0.01 0.01 0.02 0.03 0.04 0.03 0.05 0.06 0.06 0.06 0.05 0.04 0.05 0.06 0.06 0.06 0.06 0.07 0.07
0.00 0.01 0.01 0.02 0.01 0.01 0.01 0.02 0.01 0.02 0.04 0.08 0.05 0.03 0.02 0.01 0.01 0.00 0.00 0.01 0.01 0.01 0.01 0.01 0.01 0.02 0.02 0.03 0.03 0.02 0.02 0.03 0.05 0.05 0.04 0.04 0.04 0.05 0.07 0.08 0.09 0.09 0.09 0.09
0.01 0.02 0.02 0.01 0.01 0.01 0.01 0.02 0.01 0.01 0.01 0.01 0.01 0.01 0.02 0.01 0.03 0.02 0.00 0.01 0.01 0.01 0.01 0.01 0.02 0.02 0.01 0.02 0.03 0.03 0.02 0.02 0.03 0.04 0.04 0.04 0.04 0.05 0.05 0.07 0.08 0.07 0.08 0.08
0.01 0.03 0.03 0.02 0.02 0.01 0.02 0.03 0.01 0.01 0.01 0.01 0.01 0.02 0.03 0.01 0.02 0.02 0.01 0.01 0.01 0.01 0.01 0.02 0.02 0.02 0.02 0.03 0.03 0.02 0.02 0.02 0.03 0.04 0.06 0.06 0.06 0.07 0.07 0.06 0.06 0.07 0.06 0.05
0.02 0.03 0.05 0.03 0.02 0.01 0.03 0.05 0.02 0.01 0.00 0.01 0.01 0.02 0.03 0.01 0.01 0.01 0.01 0.02 0.03 0.02 0.02 0.02 0.02 0.01 0.03 0.03 0.03 0.03 0.03 0.03 0.02 0.03 0.05 0.07 0.07 0.08 0.07 0.08 0.08 0.07 0.07 0.06
0.02 0.03 0.05 0.02 0.03 0.03 0.05 0.02 0.02 0.01 0.01 0.01 0.01 0.01 0.02 0.03 0.03 0.02 0.01 0.02 0.03 0.03 0.02 0.03 0.02 0.03 0.03 0.03 0.04 0.04 0.05 0.04 0.03 0.03 0.03 0.05 0.07 0.07 0.08 0.08 0.06 0.05 0.07 0.08
0.04 0.04 0.04 0.03 0.04 0.04 0.03 0.03 0.02 0.01 0.01 0.01 0.00 0.01 0.01 0.03 0.04 0.06 0.02 0.02 0.04 0.07 0.05 0.03 0.03 0.04 0.05 0.05 0.06 0.05 0.05 0.06 0.07 0.07 0.06 0.06 0.07 0.07 0.07 0.06 0.07 0.07 0.07 0.06
0.06 0.05 0.03 0.02 0.02 0.02 0.02 0.02 0.03 0.02 0.02 0.01 0.00 0.01 0.01 0.03 0.02 0.03 0.02 0.03 0.04 0.08 0.10 0.05 0.04 0.05 0.06 0.06 0.07 0.07 0.08 0.09 0.09 0.09 0.07 0.07 0.07 0.08 0.08 0.09 0.09 0.08 0.07 0.07
0.08 0.06 0.05 0.03 0.03 0.02 0.01 0.01 0.01 0.03 0.04 0.03 0.02 0.02 0.02 0.03 0.03 0.03 0.03 0.04 0.06 0.06 0.06 0.05 0.04 0.04 0.05 0.06 0.06 0.06 0.05 0.07 0.07 0.08 0.08 0.08 0.07 0.10 0.11 0.11 0.10 0.08 0.06 0.06
0.09 0.08 0.07 0.06 0.02 0.01 0.01 0.02 0.02 0.03 0.04 0.05 0.04 0.03 0.03 0.03 0.04 0.04 0.05 0.07 0.09 0.08 0.06 0.05 0.05 0.04 0.04 0.04 0.04 0.05 0.05 0.05 0.06 0.07 0.08 0.07 0.07 0.07 0.07 0.07 0.06 0.05 0.03 0.04
0.05 0.03 0.03 0.03 0.01 0.01 0.02 0.02 0.03 0.06 0.06 0.04 0.05 0.04 0.05 0.06 0.05 0.06 0.07 0.09 0.12 0.12 0.09 0.07 0.06 0.05 0.04 0.03 0.03 0.03 0.05 0.05 0.05 0.06 0.06 0.07 0.07 0.06 0.05 0.04 0.03 0.03 0.03 0.02
0.03 0.02 0.02 0.01 0.02 0.02 0.03 0.03 0.03 0.12 0.11 0.06 0.09 0.07 0.10 0.08 0.05 0.06 0.07 0.08 0.09 0.12 0.11 0.08 0.07 0.09 0.07 0.09 0.07 0.06 0.06 0.06 0.06 0.07 0.08 0.08 0.07 0.05 0.05 0.04 0.03 0.03 0.02 0.02
0.03 0.02 0.02 0.02 0.02 0.03 0.03 0.03 0.03 0.07 0.11 0.11 0.13 0.09 0.07 0.06 0.05 0.05 0.05 0.06 0.05 0.07 0.08 0.07 0.09 0.12 0.12 0.11 0.10 0.09 0.08 0.07 0.07 0.06 0.06 0.06 0.05 0.04 0.04 0.03 0.02 0.02 0.01 0.01
0.02 0.02 0.03 0.04 0.04 0.05 0.04 0.03 0.03 0.07 0.14 0.13 0.09 0.06 0.05 0.06 0.06 0.05 0.04 0.04 0.04 0.05 0.05 0.05 0.07 0.06 0.05 0.03 0.03 0.03 0.05 0.07 0.07 0.06 0.04 0.03 0.02 0.02 0.02 0.02 0.02 0.02 0.01 0.01
0.04 0.04 0.05 0.06 0.06 0.05 0.05 0.04 0.04 0.06 0.12 0.10 0.07 0.05 0.05 0.05 0.04 0.06 0.06 0.04 0.03 0.03 0.03 0.03 0.02 0.03 0.02 0.02 0.02 0.03 0.04 0.05 0.05 0.05 0.04 0.04 0.03 0.02 0.01 0.01 0.01 0.01 0.01 0.02
0.05 0.07 0.06 0.05 0.05 0.04 0.04 0.03 0.04 0.07 0.11 0.08 0.06 0.06 0.05 0.03 0.03 0.04 0.05 0.04 0.04 0.04 0.03 0.02 0.02 0.02 0.02 0.03 0.04 0.03 0.03 0.05 0.05 0.04 0.04 0.03 0.02 0.02 0.02 0.01 0.01 0.01 0.01 0.01
0.04 0.05 0.05 0.03 0.04 0.04 0.04 0.06 0.06 0.07 0.08 0.06 0.05 0.07 0.05 0.04 0.03 0.03 0.04 0.05 0.05 0.05 0.03 0.02 0.02 0.02 0.02 0.03 0.04 0.04 0.03 0.03 0.03 0.04 0.03 0.02 0.01 0.01 0.01 0.01 0.01 0.01 0.01 0.00
0.03 0.04 0.03 0.03 0.04 0.04 0.06 0.06 0.05 0.07 0.07 0.05 0.05 0.06 0.05 0.05 0.04 0.04 0.05 0.05 0.04 0.04 0.03 0.02 0.02 0.02 0.02 0.02 0.03 0.04 0.04 0.03 0.03 0.03 0.02 0.01 0.01 0.01 0.01 0.01 0.01 0.01 0.01 0.01
0.04 0.04 0.04 0.04 0.03 0.03 0.04 0.04 0.04 0.04 0.05 0.05 0.05 0.05 0.06 0.07 0.06 0.06 0.06 0.05 0.04 0.03 0.02 0.02 0.02 0.01 0.01 0.02 0.02 0.03 0.03 0.03 0.02 0.02 0.02 0.02 0.01 0.01 0.01 0.01 0.01 0.01 0.01 0.01
0.06 0.05 0.06 0.04 0.03 0.04 0.04 0.05 0.05 0.05 0.05 0.06 0.05 0.05 0.05 0.06 0.06 0.05 0.05 0.05 0.04 0.05 0.04 0.03 0.03 0.02 0.02 0.02 0.02 0.02 0.03 0.02 0.02 0.02 0.02 0.02 0.02 0.02 0.01 0.01 0.01 0.00 0.00 0.00
0.08 0.07 0.07 0.05 0.05 0.06 0.06 0.07 0.07 0.07 0.07 0.05 0.04 0.04 0.04 0.05 0.05 0.04 0.04 0.04 0.04 0.05 0.04 0.04 0.04 0.03 0.03 0.02 0.02 0.03 0.04 0.04 0.03 0.02 0.02 0.03 0.03 0.03 0.02 0.01 0.01 0.00 0.00 0.00
0.09 0.08 0.07 0.07 0.07 0.07 0.08 0.08 0.07 0.07 0.07 0.06 0.05 0.05 0.05 0.05 0.05 0.05 0.04 0.05 0.04 0.03 0.02 0.03 0.03 0.03 0.02 0.02 0.02 0.02 0.03 0.03 0.03 0.02 0.02 0.02 0.02 0.02 0.01 0.02 0.02 0.01 0.00 0.00
0.07 0.06 0.06 0.06 0.07 0.09 0.09 0.08 0.07 0.07 0.07 0.05 0.05 0.06 0.06 0.05 0.03 0.03 0.03 0.02 0.02 0.02 0.02 0.02 0.02 0.02 0.02 0.03 0.02 0.03 0.03 0.03 0.03 0.03 0.03 0.02 0.02 0.02 0.02 0.01 0.01 0.01 0.01 0.02
0.07 0.07 0.07 0.08 0.09 0.10 0.08 0.06 0.06 0.06 0.06 0.06 0.06 0.06 0.06 0.06 0.05 0.04 0.04 0.03 0.03 0.02 0.02 0.02 0.01 0.01 0.02 0.02 0.03 0.05 0.06 0.07 0.05 0.05 0.04 0.04 0.04 0.05 0.05 0.04 0.04 0.03 0.03 0.03
0.07 0.08 0.09 0.09 0.10 0.09 0.07 0.06 0.06 0.06 0.05 0.04 0.04 0.05 0.05 0.05 0.07 0.07 0.05 0.04 0.02 0.01 0.01 0.02 0.02 0.02 0.02 0.02 0.03 0.04 0.07 0.09 0.09 0.08 0.07 0.06 0.06 0.06 0.05 0.05 0.04 0.04 0.03 0.02
MSLP
1008.95 1008.92 1008.81 1008.67 1008.52 1008.38 1008.25 1008.13 1008.00 1007.84 1007.62 1007.33 1006.96 1006.53 1006.05 1005.54 1005.04 1004.58 1004.18 1003.87 1003.68 1003.61 1003.67 1003.85 1004.15 1004.53 1004.97 1005.46 1005.95 1006.43 1006.88 1007.29 1007.65 1007.98 1008.28 1008.56 1008.84 1009.12 1009.41 1009.71 1010.01 1010.30 1010.58 1010.83
1009.24 1009.11 1008.89 1008.61 1008.32 1008.07 1007.88 1007.75 1007.66 1007.60 1007.53 1007.41 1007.22 1006.93 1006.54 1006.07 1005.55 1005.01 1004.51 1004.07 1003.75 1003.57 1003.55 1003.68 1003.95 1004.34 1004.79 1005.29 1005.78 1006.24 1006.65 1007.01 1007.31 1007.57 1007.80 1008.03 1008.28 1008.54 1008.82 1009.11 1009.41 1009.69 1009.95 1010.18
1009.64 1009.44 1009.12 1008.73 1008.34 1008.01 1007.77 1007.63 1007.58 1007.60 1007.64 1007.64 1007.56 1007.36 1007.01 1006.55 1005.97 1005.35 1004.72 1004.16 1003.72 1003.44 1003.35 1003.44 1003.71 1004.10 1004.59 1005.10 1005.61 1006.06 1006.44 1006.74 1006.97 1007.16 1007.32 1007.49 1007.68 1007.90 1008.15 1008.43 1008.72 1009.00 1009.26 1009.49
1010.11 1009.85 1009.46 1009.00 1008.54 1008.15 1007.88 1007.74 1007.72 1007.79 1007.89 1007.97 1007.95 1007.79 1007.46 1006.97 1006.33 1005.61 1004.88 1004.20 1003.66 1003.30 1003.15 1003.22 1003.49 1003.91 1004.42 1004.96 1005.48 1005.93 1006.28 1006.54 1006.71 1006.82 1006.91 1007.00 1007.13 1007.31 1007.53 1007.78 1008.06 1008.34 1008.61 1008.85
1010.54 1010.25 1009.82 1009.32 1008.82 1008.41 1008.12 1007.98 1007.98 1008.08 1008.23 1008.35 1008.36 1008.22 1007.88 1007.35 1006.66 1005.87 1005.04 1004.28 1003.66 1003.24 1003.05 1003.11 1003.38 1003.82 1004.35 1004.92 1005.45 1005.90 1006.24 1006.46 1006.57 1006.62 1006.64 1006.68 1006.75 1006.87 1007.06 1007.30 1007.57 1007.86 1008.14 1008.41
1010.85 1010.53 1010.09 1009.58 1009.09 1008.67 1008.38 1008.25 1008.26 1008.39 1008.56 1008.70 1008.73 1008.59 1008.25 1007.71 1006.98 1006.14 1005.27 1004.45 1003.78 1003.32 1003.11 1003.16 1003.43 1003.88 1004.43 1005.01 1005.55 1006.00 1006.32 1006.52 1006.60 1006.61 1006.58 1006.56 1006.59 1006.69 1006.85 1007.08 1007.35 1007.64 1007.95 1008.25
1010.96 1010.65 1010.22 1009.73 1009.26 1008.86 1008.60 1008.48 1008.51 1008.65 1008.83 1008.98 1009.02 1008.90 1008.56 1008.02 1007.30 1006.45 1005.57 1004.74 1004.05 1003.58 1003.36 1003.39 1003.65 1004.10 1004.65 1005.23 1005.77 1006.21 1006.52 1006.71 1006.78 1006.76 1006.72 1006.68 1006.69 1006.77 1006.93 1007.15 1007.43 1007.74 1008.06 1008.38
1010.86 1010.57 1010.18 1009.74 1009.32 1008.97 1008.74 1008.64 1008.68 1008.82 1009.01 1009.17 1009.22 1009.11 1008.80 1008.28 1007.59 1006.78 1005.93 1005.12 1004.45 1003.98 1003.75 1003.77 1004.02 1004.44 1004.97 1005.54 1006.06 1006.50 1006.81 1006.99 1007.06 1007.06 1007.02 1006.99 1007.01 1007.10 1007.26 1007.50 1007.79 1008.11 1008.45 1008.79
1010.60 1010.36 1010.03 1009.66 1009.30 1009.00 1008.81 1008.74 1008.79 1008.93 1009.10 1009.26 1009.31 1009.22 1008.95 1008.48 1007.85 1007.10 1006.31 1005.56 1004.92 1004.48 1004.25 1004.26 1004.48 1004.86 1005.36 1005.89 1006.38 1006.80 1007.11 1007.30 1007.39 1007.41 1007.41 1007.41 1007.46 1007.58 1007.77 1008.02 1008.33 1008.67 1009.02 1009.37
1010.28 1010.10 1009.84 1009.55 1009.27 1009.03 1008.88 1008.82 1008.87 1008.99 1009.15 1009.28 1009.33 1009.25 1009.02 1008.61 1008.05 1007.38 1006.68 1006.00 1005.42 1005.00 1004.79 1004.78 1004.96 1005.30 1005.74 1006.22 1006.68 1007.07 1007.37 1007.57 1007.69 1007.74 1007.78 1007.83 1007.93 1008.09 1008.31 1008.60 1008.94 1009.30 1009.66 1010.00
1010.01 1009.90 1009.73 1009.52 1009.31 1009.13 1009.00 1008.95 1008.98 1009.07 1009.18 1009.28 1009.31 1009.24 1009.03 1008.68 1008.19 1007.62 1007.00 1006.40 1005.89 1005.51 1005.31 1005.28 1005.42 1005.70 1006.08 1006.49 1006.89 1007.25 1007.53 1007.73 1007.87 1007.97 1008.05 1008.16 1008.30 1008.52 1008.79 1009.12 1009.48 1009.86 1010.23 1010.58
1009.90 1009.85 1009.76 1009.63 1009.48 1009.34 1009.23 1009.17 1009.16 1009.20 1009.25 1009.30 1009.29 1009.21 1009.01 1008.70 1008.29 1007.79 1007.27 1006.75 1006.31 1005.97 1005.78 1005.73 1005.83 1006.05 1006.35 1006.68 1007.02 1007.32 1007.57 1007.77 1007.92 1008.04 1008.16 1008.31 1008.51 1008.77 1009.09 1009.46 1009.86 1010.27 1010.66 1011.02
1009.96 1009.98 1009.96 1009.89 1009.80 1009.68 1009.57 1009.49 1009.43 1009.40 1009.38 1009.36 1009.30 1009.18 1008.99 1008.71 1008.35 1007.93 1007.48 1007.04 1006.66 1006.36 1006.18 1006.12 1006.17 1006.32 1006.54 1006.79 1007.06 1007.29 1007.50 1007.67 1007.81 1007.95 1008.10 1008.29 1008.53 1008.84 1009.20 1009.61 1010.05 1010.49 1010.92 1011.30
1010.19 1010.26 1010.28 1010.26 1010.20 1010.10 1009.98 1009.86 1009.74 1009.64 1009.55 1009.45 1009.33 1009.18 1008.97 1008.70 1008.39 1008.02 1007.65 1007.28 1006.95 1006.69 1006.51 1006.43 1006.44 1006.52 1006.66 1006.83 1007.01 1007.18 1007.34 1007.47 1007.59 1007.73 1007.89 1008.11 1008.38 1008.73 1009.13 1009.59 1010.07 1010.55 1011.02 1011.44
1010.49 1010.59 1010.65 1010.65 1010.61 1010.51 1010.37 1010.22 1010.05 1009.88 1009.71 1009.55 1009.37 1009.17 1008.95 1008.69 1008.40 1008.08 1007.76 1007.44 1007.16 1006.93 1006.76 1006.66 1006.62 1006.65 1006.71 1006.81 1006.91 1007.01 1007.11 1007.20 1007.30 1007.43 1007.60 1007.83 1008.13 1008.50 1008.95 1009.44 1009.97 1010.51 1011.03 1011.50
1010.77 1010.88 1010.95 1010.97 1010.93 1010.82 1010.67 1010.48 1010.27 1010.05 1009.82 1009.59 1009.37 1009.14 1008.89 1008.64 1008.37 1008.09 1007.81 1007.53 1007.29 1007.07 1006.91 1006.79 1006.72 1006.69 1006.70 1006.72 1006.76 1006.80 1006.85 1006.90 1006.98 1007.10 1007.28 1007.52 1007.85 1008.25 1008.73 1009.26 1009.84 1010.43 1011.00 1011.54
1010.94 1011.04 1011.11 1011.13 1011.08 1010.97 1010.80 1010.59 1010.34 1010.08 1009.80 1009.54 1009.27 1009.02 1008.77 1008.51 1008.26 1008.01 1007.76 1007.52 1007.30 1007.10 1006.94 1006.81 1006.72 1006.65 1006.61 1006.58 1006.57 1006.57 1006.58 1006.62 1006.69 1006.81 1006.99 1007.25 1007.60 1008.03 1008.54 1009.12 1009.73 1010.37 1010.99 1011.59
1010.94 1011.03 1011.08 1011.09 1011.03 1010.91 1010.72 1010.49 1010.22 1009.92 1009.62 1009.33 1009.04 1008.77 1008.51 1008.27 1008.03 1007.80 1007.58 1007.37 1007.17 1006.99 1006.84 1006.71 1006.60 1006.51 1006.44 1006.39 1006.35 1006.33 1006.34 1006.37 1006.45 1006.59 1006.79 1007.08 1007.45 1007.92 1008.45 1009.06 1009.70 1010.37 1011.03 1011.67
1010.79 1010.85 1010.88 1010.86 1010.78 1010.64 1010.43 1010.18 1009.88 1009.57 1009.25 1008.93 1008.63 1008.35 1008.09 1007.86 1007.63 1007.43 1007.23 1007.05 1006.88 1006.73 1006.59 1006.47 1006.36 1006.28 1006.21 1006.16 1006.12 1006.12 1006.14 1006.20 1006.30 1006.47 1006.71 1007.03 1007.43 1007.92 1008.48 1009.10 1009.76 1010.44 1011.12 1011.78
1010.53 1010.55 1010.55 1010.50 1010.38 1010.20 1009.96 1009.67 1009.35 1009.01 1008.66 1008.33 1008.02 1007.74 1007.48 1007.26 1007.06 1006.88 1006.72 1006.57 1006.44 1006.32 1006.21 1006.12 1006.04 1005.98 1005.94 1005.91 1005.92 1005.95 1006.01 1006.11 1006.27 1006.48 1006.76 1007.12 1007.55 1008.05 1008.62 1009.23 1009.89 1010.56 1011.23 1011.89
1010.21 1010.20 1010.15 1010.05 1009.88 1009.64 1009.35 1009.01 1008.64 1008.26 1007.89 1007.53 1007.21 1006.92 1006.68 1006.47 1006.30 1006.15 1006.04 1005.94 1005.86 1005.79 1005.73 1005.69 1005.67 1005.66 1005.67 1005.70 1005.76 1005.85 1005.97 1006.14 1006.35 1006.61 1006.94 1007.32 1007.77 1008.28 1008.84 1009.44 1010.07 1010.71 1011.35 1011.97
1009.90 1009.84 1009.72 1009.55 1009.30 1009.00 1008.63 1008.22 1007.79 1007.36 1006.94 1006.56 1006.22 1005.93 1005.70 1005.52 1005.38 1005.29 1005.23 1005.19 1005.18 1005.19 1005.21 1005.24 1005.29 1005.36 1005.44 1005.55 1005.69 1005.85 1006.04 1006.27 1006.54 1006.86 1007.22 1007.63 1008.09 1008.58 1009.12 1009.68 1010.26 1010.85 1011.44 1012.02
1009.61 1009.47 1009.28 1009.02 1008.68 1008.28 1007.82 1007.33 1006.83 1006.33 1005.87 1005.45 1005.09 1004.81 1004.59 1004.44 1004.36 1004.33 1004.34 1004.39 1004.47 1004.56 1004.68 1004.81 1004.96 1005.12 1005.29 1005.49 1005.71 1005.95 1006.22 1006.51 1006.84 1007.20 1007.58 1008.00 1008.45 1008.93 1009.43 1009.94 1010.46 1010.99 1011.52 1012.04
1009.31 1009.09 1008.80 1008.44 1008.00 1007.49 1006.94 1006.36 1005.78 1005.22 1004.71 1004.26 1003.90 1003.62 1003.43 1003.33 1003.30 1003.35 1003.45 1003.59 1003.77 1003.98 1004.20 1004.44 1004.69 1004.96 1005.23 1005.52 1005.82 1006.14 1006.48 1006.83 1007.20 1007.58 1007.99 1008.41 1008.84 1009.28 1009.74 1010.20 1010.66 1011.12 1011.59 1012.06
1008.95 1008.65 1008.26 1007.79 1007.25 1006.65 1006.01 1005.35 1004.70 1004.10 1003.55 1003.09 1002.73 1002.47 1002.32 1002.27 1002.32 1002.44 1002.63 1002.88 1003.16 1003.48 1003.81 1004.16 1004.51 1004.88 1005.25 1005.62 1006.00 1006.39 1006.78 1007.17 1007.58 1007.98 1008.39 1008.80 1009.21 1009.62 1010.03 1010.44 1010.85 1011.26 1011.68 1012.11
1008.51 1008.12 1007.64 1007.08 1006.46 1005.78 1005.07 1004.36 1003.68 1003.05 1002.50 1002.05 1001.71 1001.49 1001.39 1001.39 1001.51 1001.71 1001.98 1002.32 1002.70 1003.11 1003.54 1003.98 1004.43 1004.87 1005.32 1005.76 1006.21 1006.64 1007.08 1007.51 1007.93 1008.34 1008.75 1009.15 1009.54 1009.93 1010.30 1010.67 1011.05 1011.43 1011.81 1012.22
1007.97 1007.50 1006.96 1006.34 1005.66 1004.95 1004.22 1003.51 1002.83 1002.22 1001.69 1001.27 1000.97 1000.80 1000.75 1000.81 1000.99 1001.25 1001.59 1002.00 1002.44 1002.92 1003.42 1003.92 1004.43 1004.93 1005.43 1005.92 1006.40 1006.88 1007.34 1007.79 1008.22 1008.64 1009.05 1009.44 1009.82 1010.19 1010.55 1010.91 1011.27 1011.64 1012.02 1012.43
Thickness
5758 5769 5771 5768 5770 5779 5778 5782 5778 5780 5787 5795 5800 5805 5809 5814 5817 5816 5815 5816 5816 5816 5818 5819 5818 5817 5815 5812 5809 5805 5799 5793 5788 5785 5782 5779 5776 5773 5771 5769 5766 5763 5760 5757
5744 5759 5765 5762 5770 5776 5780 5785 5784 5783 5784 5802 5804 5804 5802 5804 5807 5805 5806 5809 5810 5811 5811 5812 5811 5811 5810 5807 5805 5801 5795 5790 5787 5783 5779 5776 5773 5770 5768 5765 5763 5760 5757 5754
5731 5750 5751 5745 5764 5769 5775 5783 5783 5774 5780 5792 5789 5789 5790 5793 5796 5797 5799 5802 5803 5805 5805 5806 5807 5807 5805 5803 5800 5796 5791 5787 5784 5779 5776 5773 5771 5767 5764 5760 5758 5755 5753 5750
5725 5730 5715 5749 5778 5778 5772 5778 5783 5782 5783 5783 5781 5782 5785 5787 5787 5789 5793 5795 5797 5799 5801 5803 5805 5804 5803 5800 5795 5790 5786 5783 5780 5776 5772 5769 5766 5763 5760 5757 5753 5750 5748 5745
5715 5713 5722 5749 5767 5770 5762 5761 5775 5773 5775 5778 5781 5776 5771 5780 5783 5783 5787 5790 5792 5795 5796 5797 5797 5799 5797 5793 5790 5785 5781 5778 5776 5772 5768 5765 5761 5758 5756 5752 5748 5745 5742 5739
5706 5702 5702 5733 5760 5773 5761 5743 5766 5768 5765 5767 5770 5756 5752 5768 5774 5775 5780 5784 5785 5788 5789 5788 5789 5791 5788 5785 5782 5778 5777 5775 5772 5769 5765 5760 5757 5754 5751 5747 5743 5740 5736 5733
5698 5700 5713 5740 5754 5758 5729 5729 5755 5759 5759 5759 5754 5752 5753 5761 5763 5766 5769 5773 5777 5778 5777 5778 5781 5781 5779 5776 5774 5774 5773 5770 5767 5764 5760 5757 5753 5749 5745 5741 5737 5733 5728 5725
5696 5693 5701 5736 5741 5731 5727 5744 5748 5749 5751 5749 5749 5750 5750 5749 5751 5753 5758 5762 5766 5766 5766 5768 5771 5771 5768 5767 5768 5768 5766 5763 5760 5757 5755 5751 5745 5741 5738 5734 5729 5725 5721 5717
5701 5702 5715 5727 5727 5731 5737 5735 5737 5739 5740 5741 5740 5739 5740 5738 5741 5742 5746 5749 5753 5754 5754 5756 5758 5759 5757 5757 5759 5758 5756 5753 5751 5748 5744 5741 5736 5732 5729 5725 5721 5717 5714 5709
5696 5702 5711 5717 5721 5725 5728 5727 5731 5733 5733 5733 5730 5729 5730 5729 5730 5731 5734 5737 5740 5740 5739 5741 5744 5746 5747 5749 5750 5748 5744 5741 5739 5735 5730 5726 5723 5721 5717 5714 5712 5708 5704 5700
5685 5693 5699 5705 5710 5714 5717 5720 5719 5721 5724 5724 5722 5721 5721 5719 5720 5721 5724 5727 5728 5728 5727 5729 5732 5733 5736 5738 5739 5736 5733 5730 5727 5723 5719 5712 5707 5702 5701 5696 5697 5697 5694 5690
5674 5684 5687 5690 5701 5707 5707 5708 5709 5710 5710 5714 5714 5713 5713 5711 5712 5712 5713 5715 5716 5717 5717 5719 5721 5723 5725 5727 5727 5726 5722 5720 5717 5713 5708 5703 5697 5689 5683 5683 5682 5682 5681 5678
5677 5684 5687 5690 5695 5699 5698 5700 5701 5701 5700 5702 5704 5705 5704 5703 5703 5703 5704 5704 5705 5705 5707 5708 5710 5711 5714 5716 5716 5715 5713 5710 5708 5704 5699 5695 5690 5685 5677 5670 5669 5668 5666 5664
5673 5676 5675 5679 5683 5688 5690 5691 5693 5693 5692 5694 5694 5695 5695 5694 5694 5694 5694 5694 5695 5696 5697 5698 5699 5700 5703 5705 5705 5705 5703 5701 5698 5694 5692 5688 5683 5679 5673 5668 5663 5657 5652 5650
5663 5666 5668 5673 5676 5678 5680 5681 5681 5681 5682 5683 5685 5685 5685 5684 5683 5684 5684 5685 5686 5686 5687 5688 5688 5689 5693 5694 5694 5694 5693 5690 5688 5685 5683 5680 5676 5671 5666 5660 5655 5650 5645 5640
5653 5658 5661 5663 5664 5667 5669 5671 5670 5671 5672 5673 5674 5675 5676 5676 5676 5675 5675 5675 5674 5674 5676 5678 5679 5680 5683 5684 5684 5683 5681 5679 5678 5676 5673 5670 5665 5661 5656 5651 5646 5642 5638 5633
5644 5646 5650 5652 5655 5658 5660 5662 5662 5662 5663 5664 5665 5666 5666 5666 5665 5665 5665 5665 5666 5666 5668 5669 5670 5672 5673 5674 5675 5674 5672 5669 5667 5666 5663 5659 5654 5651 5648 5644 5639 5633 5628 5623
5642 5645 5647 5647 5649 5650 5651 5653 5654 5654 5655 5656 5657 5657 5657 5656 5655 5654 5655 5656 5657 5657 5658 5660 5662 5663 5664 5665 5665 5664 5662 5660 5658 5655 5652 5648 5644 5641 5638 5634 5630 5625 5619 5615
5637 5638 5640 5641 5642 5642 5642 5643 5645 5646 5648 5648 5648 5647 5647 5647 5647 5647 5647 5647 5647 5647 5648 5651 5652 5654 5654 5655 5655 5654 5652 5649 5646 5643 5641 5637 5635 5632 5629 5625 5620 5616 5611 5606
5628 5630 5631 5632 5633 5633 5633 5635 5636 5637 5638 5639 5640 5638 5638 5638 5639 5639 5639 5639 5639 5640 5641 5642 5644 5644 5645 5645 5644 5643 5641 5639 5636 5634 5631 5629 5626 5622 5619 5615 5611 5606 5601 5597
5618 5620 5621 5621 5622 5624 5625 5627 5628 5628 5628 5630 5630 5629 5629 5630 5631 5631 5631 5630 5630 5632 5634 5633 5635 5635 5635 5635 5635 5634 5632 5629 5627 5625 5622 5620 5616 5613 5609 5605 5601 5596 5592 5587
5609 5611 5612 5612 5614 5615 5617 5618 5620 5620 5620 5621 5621 5621 5621 5621 5622 5623 5623 5622 5623 5623 5625 5626 5626 5624 5625 5625 5626 5625 5623 5621 5619 5616 5613 5610 5607 5603 5599 5595 5590 5586 5581 5577
5601 5603 5604 5605 5606 5607 5609 5610 5612 5612 5612 5612 5613 5613 5614 5614 5615 5615 5614 5614 5615 5614 5616 5615 5613 5614 5615 5616 5617 5615 5613 5611 5609 5607 5604 5601 5598 5593 5589 5584 5579 5575 5570 5566
5593 5594 5596 5597 5599 5598 5598 5600 5601 5602 5603 5603 5604 5605 5606 5607 5607 5607 5607 5604 5605 5605 5606 5603 5604 5605 5606 5608 5607 5606 5605 5603 5601 5598 5595 5592 5588 5583 5578 5573 5568 5563 5558 5554
5586 5588 5589 5589 5589 5590 5591 5592 5594 5594 5596 5597 5597 5599 5600 5601 5601 5600 5599 5598 5596 5597 5597 5596 5596 5596 5598 5598 5598 5596 5595 5593 5591 5588 5584 5580 5576 5571 5566 5561 5556 5551 5547 5542
5580 5582 5582 5583 5584 5584 5586 5587 5588 5588 5590 5590 5591 5592 5593 5593 5593 5593 5592 5592 5592 5591 5591 5590 5589 5589 5589 5589 5588 5586 5584 5582 5580 5576 5572 5568 5563 5558 5553 5548 5543 5539 5534 5529
5574 5575 5576 5576 5577 5579 5580 5581 5582 5582 5584 5585 5586 5586 5587 5587 5587 5587 5587 5586 5586 5585 5585 5584 5582 5581 5580 5579 5577 5575 5573 5570 5567 5564 5560 5556 5551 5546 5541 5537 5532 5528 5523 5518